• In Hungary
  • List of Countries
  • For 7 days
  • Water Temperature
  • Satellite Maps
  • Weather Map
  • News
  • Weather Widgets
  • user-avatar
    Login

    Hourly Weather Beklenevka

    Today, 21 August, Tuesday

    Time Temperature Precipitation Wind Pressure Humidity
    00:00 +19°C° 0 mm 3 mps 746 mmHg 79%
    01:00 +18°C° 0 mm 3 mps 746 mmHg 81%
    02:00 +18°C° 0 mm 3 mps 746 mmHg 82%
    03:00 +18°C° 0 mm 3 mps 746 mmHg 84%
    04:00 +18°C° 0 mm 3 mps 745 mmHg 85%
    05:00 +18°C° 0 mm 4 mps 745 mmHg 86%
    06:00 +18°C° 0 mm 4 mps 745 mmHg 87%
    07:00 +19°C° 0 mm 5 mps 744 mmHg 80%
    08:00 +21°C° 0 mm 5 mps 744 mmHg 73%
    09:00 +23°C° 0 mm 6 mps 744 mmHg 66%
    10:00 +24°C° 0 mm 7 mps 743 mmHg 63%
    11:00 +26°C° 0 mm 8 mps 743 mmHg 60%
    12:00 +28°C° 0 mm 8 mps 743 mmHg 56%
    13:00 +27°C° 1 mm 8 mps 742 mmHg 59%
    14:00 +27°C° 1 mm 8 mps 742 mmHg 63%
    15:00 +26°C° 1 mm 8 mps 742 mmHg 66%
    16:00 +24°C° 1.3 mm 7 mps 741 mmHg 70%
    17:00 +23°C° 1.3 mm 7 mps 741 mmHg 75%
    18:00 +22°C° 1.3 mm 6 mps 741 mmHg 80%
    19:00 +21°C° 0.4 mm 5 mps 742 mmHg 82%
    20:00 +19°C° 0.4 mm 5 mps 742 mmHg 84%
    21:00 +18°C° 0.4 mm 4 mps 742 mmHg 86%
    22:00 +17°C° 0 mm 4 mps 742 mmHg 86%
    23:00 +15°C° 0 mm 4 mps 743 mmHg 85%

    Tomorrow, 22 August, Wednesday

    Time Temperature Precipitation Wind Pressure Humidity
    00:00 +14°C° 0 mm 4 mps 743 mmHg 84%
    01:00 +13°C° 0 mm 4 mps 744 mmHg 84%
    02:00 +12°C° 0 mm 3 mps 744 mmHg 85%
    03:00 +12°C° 0 mm 3 mps 744 mmHg 85%
    04:00 +11°C° 0 mm 3 mps 745 mmHg 86%
    05:00 +11°C° 0 mm 3 mps 745 mmHg 86%
    06:00 +11°C° 0 mm 3 mps 745 mmHg 87%
    07:00 +12°C° 0 mm 4 mps 746 mmHg 80%
    08:00 +13°C° 0 mm 5 mps 746 mmHg 73%
    09:00 +15°C° 0 mm 6 mps 746 mmHg 67%
    10:00 +16°C° 0 mm 6 mps 746 mmHg 62%
    11:00 +17°C° 0 mm 6 mps 747 mmHg 58%
    12:00 +19°C° 0 mm 6 mps 747 mmHg 53%
    13:00 +19°C° 0 mm 6 mps 747 mmHg 52%
    14:00 +20°C° 0 mm 6 mps 747 mmHg 50%
    15:00 +20°C° 0 mm 6 mps 747 mmHg 49%
    16:00 +20°C° 0 mm 5 mps 748 mmHg 53%
    17:00 +19°C° 0 mm 4 mps 748 mmHg 56%
    18:00 +19°C° 0 mm 3 mps 748 mmHg 60%
    19:00 +17°C° 0 mm 3 mps 749 mmHg 63%
    20:00 +16°C° 0 mm 3 mps 750 mmHg 66%
    21:00 +13°C° 0 mm 3 mps 750 mmHg 69%
    22:00 +12°C° 0 mm 3 mps 751 mmHg 70%
    23:00 +12°C° 0 mm 3 mps 751 mmHg 72%

    Day after tomorrow, 23 August, Thursday

    Time Temperature Precipitation Wind Pressure Humidity
    00:00 +11°C° 0 mm 3 mps 751 mmHg 73%
    01:00 +10°C° 0 mm 3 mps 752 mmHg 73%
    02:00 +10°C° 0 mm 3 mps 752 mmHg 74%
    03:00 +9°C° 0 mm 3 mps 752 mmHg 75%
    04:00 +9°C° 0 mm 2 mps 753 mmHg 76%
    05:00 +9°C° 0 mm 2 mps 753 mmHg 77%
    06:00 +9°C° 0 mm 2 mps 753 mmHg 79%
    07:00 +12°C° 0 mm 2 mps 753 mmHg 73%
    08:00 +14°C° 0 mm 2 mps 754 mmHg 66%
    09:00 +16°C° 0 mm 2 mps 754 mmHg 60%
    10:00 +17°C° 0 mm 2 mps 754 mmHg 55%
    11:00 +18°C° 0 mm 2 mps 754 mmHg 49%
    12:00 +19°C° 0 mm 3 mps 754 mmHg 44%
    13:00 +19°C° 0 mm 2 mps 754 mmHg 43%
    14:00 +20°C° 0 mm 2 mps 754 mmHg 42%
    15:00 +20°C° 0 mm 2 mps 753 mmHg 41%
    16:00 +20°C° 0 mm 2 mps 753 mmHg 45%
    17:00 +20°C° 0 mm 2 mps 753 mmHg 49%
    18:00 +20°C° 0 mm 1 mps 753 mmHg 52%
    19:00 +19°C° 0 mm 1 mps 753 mmHg 55%
    20:00 +16°C° 0 mm 1 mps 753 mmHg 58%
    21:00 +14°C° 0 mm 1 mps 753 mmHg 61%
    22:00 +14°C° 0 mm 1 mps 754 mmHg 62%
    23:00 +13°C° 0 mm 1 mps 754 mmHg 63%

    24 August, Friday

    Time Temperature Precipitation Wind Pressure Humidity
    00:00 +13°C° 0 mm 1 mps 754 mmHg 65%
    01:00 +13°C° 0 mm 1 mps 754 mmHg 66%
    02:00 +12°C° 0 mm 2 mps 754 mmHg 67%
    03:00 +12°C° 0 mm 2 mps 754 mmHg 69%
    04:00 +12°C° 0 mm 2 mps 754 mmHg 70%
    05:00 +12°C° 0 mm 1 mps 754 mmHg 71%
    06:00 +11°C° 0 mm 1 mps 754 mmHg 73%
    07:00 +13°C° 0 mm 2 mps 754 mmHg 68%
    08:00 +16°C° 0 mm 2 mps 754 mmHg 62%
    09:00 +18°C° 0 mm 2 mps 754 mmHg 57%
    10:00 +19°C° 0 mm 2 mps 753 mmHg 53%
    11:00 +20°C° 0 mm 3 mps 753 mmHg 50%
    12:00 +21°C° 0 mm 3 mps 753 mmHg 46%
    13:00 +22°C° 0 mm 3 mps 753 mmHg 45%
    14:00 +22°C° 0 mm 3 mps 752 mmHg 45%
    15:00 +22°C° 0 mm 3 mps 752 mmHg 44%
    16:00 +22°C° 0 mm 3 mps 752 mmHg 48%
    17:00 +23°C° 0 mm 2 mps 751 mmHg 51%
    18:00 +21°C° 0 mm 2 mps 751 mmHg 55%
    19:00 +19°C° 0 mm 2 mps 751 mmHg 59%
    20:00 +18°C° 0 mm 2 mps 751 mmHg 62%
    21:00 +16°C° 0 mm 2 mps 751 mmHg 65%
    22:00 +15°C° 0 mm 2 mps 751 mmHg 66%
    23:00 +15°C° 0 mm 2 mps 751 mmHg 67%

    25 August, Saturday

    Time Temperature Precipitation Wind Pressure Humidity
    00:00 +14°C° 0 mm 2 mps 751 mmHg 68%
    01:00 +14°C° 0 mm 2 mps 751 mmHg 68%
    02:00 +14°C° 0 mm 2 mps 751 mmHg 68%
    03:00 +14°C° 0 mm 2 mps 751 mmHg 68%
    04:00 +13°C° 0 mm 2 mps 751 mmHg 68%
    05:00 +13°C° 0 mm 2 mps 751 mmHg 69%
    06:00 +13°C° 0 mm 2 mps 751 mmHg 69%
    07:00 +14°C° 0 mm 3 mps 751 mmHg 65%
    08:00 +17°C° 0 mm 3 mps 751 mmHg 61%
    09:00 +19°C° 0 mm 3 mps 751 mmHg 57%
    10:00 +20°C° 0 mm 4 mps 750 mmHg 52%
    11:00 +22°C° 0 mm 4 mps 750 mmHg 48%
    12:00 +23°C° 0 mm 4 mps 750 mmHg 43%
    13:00 +25°C° 0 mm 5 mps 750 mmHg 43%
    14:00 +25°C° 0 mm 5 mps 749 mmHg 43%
    15:00 +25°C° 0 mm 5 mps 749 mmHg 42%
    16:00 +23°C° 0 mm 4 mps 749 mmHg 47%
    17:00 +24°C° 0 mm 3 mps 748 mmHg 51%
    18:00 +22°C° 0 mm 3 mps 748 mmHg 55%
    19:00 +20°C° 0 mm 3 mps 748 mmHg 58%
    20:00 +19°C° 0 mm 3 mps 748 mmHg 61%
    21:00 +17°C° 0 mm 3 mps 748 mmHg 63%
    22:00 +17°C° 0 mm 3 mps 748 mmHg 63%
    23:00 +16°C° 0 mm 3 mps 748 mmHg 63%

    26 August, Sunday

    Time Temperature Precipitation Wind Pressure Humidity
    00:00 +16°C° 0 mm 3 mps 748 mmHg 63%
    01:00 +14°C° 0 mm 3 mps 748 mmHg 63%
    02:00 +14°C° 0 mm 3 mps 748 mmHg 63%
    03:00 +14°C° 0 mm 3 mps 748 mmHg 63%
    04:00 +13°C° 0 mm 3 mps 748 mmHg 64%
    05:00 +13°C° 0 mm 3 mps 748 mmHg 65%
    06:00 +13°C° 0 mm 3 mps 748 mmHg 65%
    07:00 +16°C° 0 mm 3 mps 748 mmHg 61%
    08:00 +18°C° 0 mm 3 mps 748 mmHg 58%
    09:00 +20°C° 0 mm 4 mps 748 mmHg 54%
    10:00 +21°C° 0 mm 4 mps 747 mmHg 49%
    11:00 +23°C° 0 mm 4 mps 747 mmHg 44%
    12:00 +26°C° 0 mm 4 mps 747 mmHg 39%
    13:00 +26°C° 0 mm 4 mps 747 mmHg 38%
    14:00 +27°C° 0 mm 4 mps 747 mmHg 36%
    15:00 +27°C° 0 mm 4 mps 746 mmHg 35%
    16:00 +26°C° 0 mm 4 mps 746 mmHg 40%
    17:00 +25°C° 0 mm 3 mps 746 mmHg 44%
    18:00 +25°C° 0 mm 2 mps 746 mmHg 49%
    19:00 +23°C° 0 mm 2 mps 746 mmHg 51%
    20:00 +20°C° 0 mm 2 mps 746 mmHg 53%
    21:00 +18°C° 0 mm 2 mps 746 mmHg 55%
    22:00 +18°C° 0 mm 2 mps 746 mmHg 55%
    23:00 +17°C° 0 mm 2 mps 746 mmHg 56%
    Show more